Location: Heathcote
(40.9845°N, 73.7746°W)
Time: 13:43:48
(UTC+00:00)

Cosmos 2219 - Pass Details

Date: 29 October 2020
Orbit: 832 x 862 km, 71.1° (Epoch: 01 December)

Event Time Altitude Azimuth Distance (km) Brightness Sun altitude
Rises 23:10:50 0° 333° (NNW) 3,445 6.7 -15.0°
Reaches altitude 10° 23:13:19 10° 330° (NNW) 2,506 6.0 -15.5°
Maximum altitude 23:18:59 61° 251° (WSW) 970 3.8 -16.6°
Drops below altitude 10° 23:24:37 10° 172° (S) 2,487 5.6 -17.6°
Sets 23:27:05 0° 169° (S) 3,417 6.3 -18.1°
